GFSNW_prec_pwat_135.txt.gz
Precipitable_Water
0.77 0.96 1.02 0.83 0.69 0.64 0.65 0.54 0.39 0.60 0.69 0.44 0.41 0.39 0.44 0.38 0.31 0.32 0.31 0.28 0.27 0.25 0.25 0.22 0.21 0.24 0.26 0.27 0.21 0.19 0.25 0.23 0.17 0.18 0.23 0.26 0.27 0.23 0.23 0.19 0.20 0.33 0.25 0.25
0.76 0.80 0.83 0.82 0.77 0.79 0.66 0.46 0.47 0.67 0.66 0.35 0.33 0.37 0.33 0.30 0.29 0.29 0.29 0.27 0.28 0.28 0.24 0.21 0.20 0.24 0.29 0.26 0.20 0.23 0.25 0.21 0.16 0.19 0.24 0.28 0.26 0.25 0.25 0.27 0.30 0.22 0.23 0.26
0.73 0.75 0.77 0.78 0.76 0.81 0.72 0.53 0.39 0.49 0.54 0.55 0.41 0.37 0.36 0.30 0.36 0.32 0.32 0.30 0.29 0.26 0.24 0.24 0.21 0.23 0.24 0.23 0.23 0.29 0.28 0.24 0.16 0.14 0.17 0.24 0.22 0.25 0.26 0.27 0.24 0.30 0.29 0.29
0.73 0.74 0.74 0.76 0.79 0.81 0.76 0.60 0.40 0.45 0.34 0.41 0.41 0.43 0.34 0.30 0.30 0.35 0.35 0.29 0.28 0.25 0.21 0.21 0.19 0.21 0.22 0.21 0.27 0.26 0.29 0.20 0.20 0.19 0.20 0.23 0.22 0.25 0.27 0.28 0.31 0.27 0.30 0.30
0.69 0.71 0.72 0.74 0.77 0.80 0.68 0.47 0.45 0.50 0.45 0.45 0.40 0.34 0.31 0.32 0.30 0.26 0.22 0.22 0.23 0.24 0.21 0.17 0.17 0.19 0.19 0.21 0.27 0.28 0.28 0.22 0.20 0.18 0.24 0.27 0.23 0.30 0.30 0.31 0.32 0.33 0.34 0.31
0.67 0.69 0.70 0.73 0.76 0.76 0.60 0.61 0.57 0.49 0.41 0.39 0.38 0.35 0.32 0.30 0.29 0.31 0.31 0.32 0.30 0.26 0.24 0.24 0.24 0.25 0.28 0.28 0.25 0.26 0.26 0.23 0.18 0.19 0.25 0.28 0.24 0.29 0.31 0.31 0.34 0.33 0.28 0.34
0.66 0.68 0.69 0.71 0.73 0.71 0.68 0.58 0.57 0.46 0.37 0.40 0.37 0.35 0.36 0.34 0.33 0.32 0.34 0.33 0.26 0.31 0.33 0.32 0.29 0.28 0.28 0.29 0.28 0.32 0.26 0.22 0.19 0.19 0.24 0.18 0.31 0.37 0.36 0.32 0.33 0.35 0.35 0.36
0.65 0.67 0.67 0.70 0.71 0.71 0.69 0.64 0.59 0.44 0.38 0.37 0.36 0.35 0.33 0.35 0.36 0.32 0.28 0.32 0.36 0.33 0.27 0.22 0.20 0.19 0.21 0.24 0.29 0.29 0.30 0.24 0.19 0.16 0.19 0.25 0.24 0.26 0.28 0.27 0.26 0.33 0.32 0.34
0.60 0.63 0.68 0.69 0.69 0.69 0.64 0.60 0.65 0.51 0.37 0.34 0.35 0.33 0.35 0.34 0.31 0.31 0.35 0.38 0.38 0.31 0.27 0.25 0.18 0.16 0.19 0.20 0.24 0.32 0.30 0.28 0.21 0.21 0.16 0.17 0.27 0.29 0.33 0.33 0.21 0.34 0.34 0.32
0.56 0.60 0.62 0.64 0.68 0.66 0.63 0.58 0.66 0.56 0.41 0.41 0.38 0.35 0.33 0.36 0.31 0.28 0.31 0.28 0.28 0.34 0.27 0.24 0.21 0.21 0.25 0.21 0.19 0.20 0.21 0.22 0.17 0.19 0.16 0.24 0.28 0.30 0.35 0.17 0.23 0.32 0.32 0.32
0.55 0.61 0.64 0.66 0.70 0.65 0.61 0.54 0.62 0.53 0.41 0.45 0.49 0.46 0.39 0.36 0.35 0.29 0.29 0.26 0.27 0.25 0.25 0.24 0.24 0.23 0.23 0.23 0.26 0.22 0.20 0.19 0.17 0.19 0.16 0.16 0.33 0.30 0.23 0.29 0.31 0.30 0.31 0.31
0.52 0.56 0.60 0.63 0.66 0.63 0.58 0.48 0.58 0.59 0.49 0.48 0.54 0.51 0.50 0.48 0.44 0.38 0.32 0.29 0.24 0.28 0.28 0.29 0.28 0.22 0.26 0.23 0.18 0.27 0.20 0.24 0.25 0.22 0.25 0.32 0.31 0.29 0.32 0.33 0.31 0.31 0.32 0.32
0.53 0.59 0.64 0.63 0.63 0.57 0.54 0.54 0.55 0.52 0.46 0.43 0.40 0.38 0.45 0.45 0.43 0.44 0.31 0.33 0.35 0.31 0.41 0.32 0.30 0.24 0.27 0.21 0.25 0.24 0.26 0.29 0.23 0.22 0.26 0.27 0.30 0.32 0.33 0.33 0.31 0.32 0.32 0.31
0.55 0.59 0.62 0.60 0.55 0.50 0.53 0.53 0.56 0.50 0.40 0.31 0.34 0.47 0.37 0.44 0.40 0.37 0.42 0.38 0.38 0.35 0.35 0.29 0.27 0.23 0.29 0.25 0.28 0.25 0.27 0.26 0.23 0.23 0.26 0.28 0.29 0.31 0.32 0.32 0.33 0.31 0.31 0.31
0.53 0.58 0.57 0.51 0.50 0.48 0.51 0.56 0.55 0.56 0.44 0.31 0.35 0.41 0.44 0.44 0.40 0.37 0.38 0.35 0.31 0.29 0.26 0.25 0.23 0.26 0.24 0.26 0.25 0.25 0.27 0.25 0.20 0.19 0.26 0.27 0.29 0.32 0.34 0.32 0.31 0.32 0.31 0.30
0.53 0.57 0.52 0.48 0.44 0.43 0.42 0.41 0.51 0.54 0.49 0.37 0.32 0.45 0.43 0.44 0.43 0.37 0.35 0.35 0.33 0.31 0.27 0.27 0.28 0.31 0.27 0.20 0.19 0.28 0.28 0.29 0.29 0.25 0.33 0.33 0.34 0.35 0.36 0.35 0.34 0.33 0.32 0.32
0.56 0.58 0.50 0.46 0.42 0.40 0.34 0.35 0.47 0.52 0.52 0.37 0.31 0.31 0.42 0.45 0.43 0.41 0.37 0.38 0.35 0.33 0.28 0.27 0.26 0.23 0.26 0.22 0.19 0.26 0.27 0.28 0.29 0.32 0.33 0.30 0.33 0.32 0.36 0.35 0.34 0.33 0.32 0.32
0.57 0.56 0.49 0.46 0.45 0.43 0.33 0.41 0.45 0.48 0.41 0.40 0.31 0.31 0.34 0.46 0.36 0.32 0.40 0.33 0.33 0.32 0.30 0.28 0.27 0.26 0.26 0.20 0.25 0.25 0.27 0.28 0.30 0.32 0.34 0.34 0.35 0.35 0.34 0.34 0.33 0.31 0.30 0.29
0.52 0.47 0.44 0.41 0.37 0.31 0.34 0.41 0.44 0.45 0.38 0.29 0.31 0.25 0.26 0.44 0.39 0.38 0.35 0.35 0.26 0.31 0.27 0.27 0.28 0.25 0.20 0.24 0.24 0.24 0.26 0.26 0.28 0.31 0.33 0.34 0.32 0.32 0.32 0.31 0.29 0.27 0.24 0.20
0.46 0.41 0.35 0.26 0.32 0.42 0.42 0.34 0.29 0.29 0.29 0.32 0.30 0.37 0.29 0.38 0.35 0.32 0.30 0.31 0.26 0.22 0.26 0.31 0.24 0.23 0.31 0.27 0.28 0.29 0.30 0.31 0.32 0.30 0.29 0.31 0.30 0.29 0.28 0.27 0.24 0.20 0.17 0.16
0.37 0.30 0.29 0.38 0.40 0.34 0.29 0.21 0.23 0.24 0.23 0.30 0.32 0.33 0.30 0.41 0.30 0.27 0.33 0.26 0.26 0.19 0.24 0.23 0.20 0.19 0.24 0.29 0.30 0.31 0.32 0.33 0.34 0.35 0.35 0.33 0.31 0.28 0.24 0.20 0.18 0.17 0.16 0.14
0.36 0.38 0.41 0.35 0.28 0.26 0.24 0.23 0.24 0.24 0.23 0.29 0.31 0.33 0.35 0.38 0.41 0.30 0.30 0.23 0.24 0.19 0.28 0.21 0.17 0.24 0.27 0.29 0.30 0.32 0.34 0.34 0.35 0.36 0.34 0.32 0.29 0.25 0.20 0.17 0.16 0.15 0.15 0.14
0.42 0.33 0.28 0.28 0.25 0.20 0.19 0.17 0.21 0.22 0.26 0.30 0.33 0.31 0.34 0.36 0.39 0.30 0.27 0.22 0.22 0.29 0.21 0.17 0.22 0.27 0.26 0.28 0.29 0.32 0.35 0.35 0.35 0.33 0.32 0.29 0.24 0.21 0.18 0.16 0.16 0.15 0.14 0.13
0.30 0.25 0.21 0.24 0.20 0.21 0.23 0.24 0.27 0.30 0.30 0.31 0.34 0.31 0.31 0.36 0.29 0.28 0.22 0.26 0.25 0.18 0.15 0.15 0.24 0.24 0.25 0.26 0.28 0.30 0.31 0.33 0.31 0.30 0.27 0.23 0.20 0.18 0.17 0.15 0.15 0.14 0.13 0.12
0.23 0.25 0.20 0.21 0.25 0.28 0.29 0.32 0.31 0.32 0.34 0.36 0.34 0.32 0.33 0.30 0.26 0.28 0.24 0.19 0.16 0.17 0.16 0.23 0.26 0.25 0.25 0.26 0.28 0.30 0.30 0.30 0.29 0.27 0.22 0.19 0.17 0.15 0.14 0.14 0.14 0.14 0.13 0.12
0.24 0.25 0.22 0.26 0.25 0.25 0.29 0.31 0.30 0.35 0.35 0.39 0.37 0.29 0.28 0.25 0.26 0.21 0.19 0.17 0.15 0.19 0.24 0.27 0.27 0.27 0.28 0.29 0.30 0.30 0.30 0.28 0.27 0.25 0.19 0.17 0.15 0.14 0.14 0.14 0.15 0.14 0.13 0.12
0.22 0.22 0.28 0.29 0.28 0.26 0.29 0.34 0.34 0.39 0.35 0.30 0.31 0.25 0.24 0.29 0.22 0.19 0.22 0.19 0.24 0.27 0.25 0.28 0.28 0.27 0.27 0.28 0.29 0.30 0.29 0.27 0.26 0.21 0.17 0.16 0.15 0.15 0.14 0.13 0.14 0.14 0.14 0.14

GFSNW_prec_pwat_138.txt.gz
Precipitable_Water
0.50 0.53 0.67 0.84 0.92 0.88 0.78 0.56 0.35 0.62 0.61 0.38 0.37 0.27 0.34 0.40 0.40 0.40 0.34 0.35 0.35 0.32 0.33 0.32 0.32 0.28 0.29 0.35 0.29 0.19 0.26 0.23 0.22 0.20 0.29 0.27 0.26 0.26 0.24 0.17 0.15 0.23 0.21 0.22
0.55 0.56 0.64 0.81 0.90 0.84 0.68 0.49 0.46 0.62 0.54 0.27 0.29 0.34 0.37 0.39 0.39 0.33 0.31 0.34 0.37 0.41 0.35 0.29 0.29 0.27 0.37 0.33 0.23 0.25 0.26 0.22 0.16 0.18 0.22 0.24 0.23 0.29 0.25 0.24 0.24 0.18 0.18 0.21
0.55 0.63 0.73 0.76 0.77 0.74 0.65 0.48 0.29 0.40 0.47 0.45 0.33 0.32 0.34 0.34 0.37 0.33 0.36 0.36 0.36 0.32 0.30 0.30 0.30 0.31 0.35 0.28 0.24 0.31 0.28 0.25 0.22 0.21 0.25 0.30 0.26 0.28 0.29 0.24 0.19 0.21 0.24 0.28
0.59 0.69 0.74 0.76 0.77 0.74 0.67 0.47 0.32 0.34 0.26 0.32 0.37 0.36 0.41 0.33 0.30 0.34 0.34 0.32 0.32 0.31 0.28 0.27 0.25 0.32 0.29 0.22 0.25 0.27 0.26 0.20 0.21 0.21 0.20 0.22 0.20 0.21 0.24 0.22 0.26 0.22 0.26 0.27
0.61 0.69 0.74 0.74 0.76 0.75 0.57 0.43 0.36 0.38 0.34 0.43 0.38 0.41 0.34 0.29 0.28 0.28 0.28 0.29 0.32 0.32 0.28 0.27 0.26 0.31 0.25 0.19 0.23 0.23 0.27 0.22 0.22 0.18 0.22 0.26 0.20 0.24 0.26 0.27 0.28 0.29 0.30 0.29
0.56 0.67 0.72 0.74 0.75 0.76 0.61 0.64 0.58 0.49 0.42 0.42 0.41 0.41 0.41 0.39 0.39 0.39 0.38 0.34 0.31 0.30 0.32 0.33 0.33 0.31 0.25 0.26 0.21 0.25 0.26 0.27 0.18 0.19 0.26 0.26 0.19 0.25 0.28 0.28 0.31 0.31 0.26 0.32
0.58 0.64 0.70 0.72 0.73 0.74 0.69 0.68 0.64 0.50 0.40 0.44 0.44 0.43 0.41 0.39 0.36 0.33 0.34 0.33 0.31 0.36 0.39 0.35 0.33 0.31 0.32 0.32 0.30 0.34 0.27 0.24 0.23 0.27 0.26 0.14 0.28 0.37 0.33 0.29 0.30 0.34 0.32 0.33
0.59 0.65 0.70 0.70 0.73 0.75 0.71 0.69 0.63 0.53 0.42 0.47 0.44 0.38 0.38 0.39 0.38 0.34 0.35 0.38 0.43 0.44 0.37 0.28 0.25 0.27 0.26 0.28 0.31 0.32 0.35 0.26 0.19 0.18 0.19 0.25 0.28 0.28 0.24 0.21 0.24 0.30 0.29 0.32
0.60 0.65 0.68 0.69 0.71 0.72 0.71 0.70 0.73 0.60 0.46 0.42 0.46 0.41 0.42 0.38 0.34 0.35 0.41 0.45 0.46 0.39 0.28 0.23 0.17 0.16 0.18 0.19 0.23 0.31 0.29 0.30 0.23 0.20 0.14 0.16 0.27 0.33 0.34 0.30 0.18 0.30 0.31 0.29
0.56 0.63 0.67 0.69 0.70 0.72 0.69 0.69 0.77 0.62 0.45 0.46 0.46 0.40 0.41 0.42 0.40 0.38 0.41 0.39 0.35 0.36 0.27 0.23 0.21 0.20 0.21 0.21 0.20 0.21 0.24 0.23 0.18 0.18 0.19 0.24 0.30 0.33 0.34 0.16 0.20 0.33 0.30 0.29
0.52 0.62 0.66 0.68 0.69 0.70 0.67 0.65 0.81 0.65 0.52 0.52 0.49 0.50 0.43 0.43 0.40 0.33 0.36 0.31 0.31 0.31 0.27 0.25 0.27 0.28 0.27 0.29 0.28 0.22 0.20 0.19 0.18 0.20 0.18 0.18 0.34 0.33 0.24 0.30 0.33 0.30 0.30 0.30
0.56 0.64 0.66 0.66 0.68 0.67 0.66 0.57 0.74 0.74 0.54 0.51 0.59 0.58 0.62 0.54 0.50 0.38 0.34 0.31 0.26 0.27 0.28 0.29 0.36 0.29 0.29 0.30 0.24 0.30 0.23 0.29 0.29 0.25 0.24 0.33 0.36 0.34 0.36 0.34 0.30 0.31 0.31 0.31
0.57 0.61 0.64 0.64 0.66 0.61 0.63 0.62 0.63 0.57 0.48 0.51 0.50 0.47 0.54 0.55 0.55 0.54 0.32 0.33 0.34 0.32 0.45 0.39 0.38 0.26 0.31 0.24 0.27 0.27 0.30 0.33 0.28 0.26 0.29 0.29 0.31 0.31 0.32 0.33 0.31 0.31 0.31 0.30
0.55 0.62 0.65 0.63 0.62 0.56 0.66 0.62 0.63 0.57 0.48 0.38 0.42 0.53 0.45 0.49 0.48 0.48 0.46 0.42 0.39 0.39 0.42 0.35 0.31 0.28 0.32 0.30 0.33 0.31 0.30 0.29 0.25 0.25 0.27 0.28 0.28 0.30 0.30 0.30 0.31 0.30 0.30 0.30
0.58 0.62 0.63 0.60 0.56 0.58 0.65 0.64 0.64 0.69 0.48 0.36 0.38 0.45 0.46 0.44 0.40 0.37 0.39 0.38 0.34 0.33 0.32 0.29 0.28 0.31 0.30 0.33 0.31 0.30 0.32 0.28 0.21 0.19 0.26 0.26 0.26 0.31 0.32 0.30 0.29 0.31 0.30 0.30
0.58 0.60 0.58 0.54 0.53 0.56 0.58 0.46 0.60 0.62 0.50 0.37 0.28 0.43 0.40 0.42 0.39 0.37 0.38 0.38 0.35 0.34 0.32 0.32 0.33 0.35 0.32 0.22 0.21 0.32 0.33 0.34 0.33 0.27 0.30 0.30 0.32 0.32 0.33 0.31 0.32 0.32 0.31 0.31
0.55 0.54 0.51 0.51 0.47 0.52 0.47 0.44 0.53 0.58 0.57 0.36 0.29 0.31 0.42 0.43 0.39 0.37 0.36 0.39 0.39 0.36 0.29 0.28 0.26 0.23 0.28 0.23 0.23 0.30 0.30 0.28 0.28 0.31 0.30 0.27 0.30 0.29 0.34 0.34 0.33 0.32 0.32 0.31
0.56 0.51 0.51 0.49 0.47 0.48 0.42 0.51 0.56 0.59 0.49 0.44 0.32 0.31 0.34 0.45 0.35 0.31 0.38 0.32 0.33 0.33 0.31 0.29 0.27 0.26 0.26 0.22 0.28 0.28 0.28 0.28 0.28 0.29 0.32 0.32 0.34 0.34 0.32 0.33 0.31 0.29 0.28 0.27
0.54 0.48 0.48 0.46 0.42 0.36 0.39 0.50 0.52 0.52 0.47 0.35 0.33 0.26 0.24 0.42 0.38 0.36 0.37 0.36 0.28 0.32 0.29 0.29 0.29 0.26 0.20 0.25 0.27 0.24 0.26 0.25 0.27 0.30 0.31 0.31 0.29 0.30 0.30 0.30 0.28 0.26 0.22 0.18
0.51 0.48 0.37 0.27 0.34 0.42 0.44 0.38 0.32 0.33 0.34 0.41 0.35 0.39 0.29 0.37 0.38 0.35 0.32 0.33 0.26 0.21 0.27 0.32 0.25 0.25 0.33 0.30 0.30 0.27 0.28 0.29 0.30 0.26 0.25 0.28 0.28 0.28 0.28 0.27 0.25 0.21 0.17 0.16
0.45 0.35 0.31 0.40 0.45 0.39 0.31 0.22 0.23 0.24 0.24 0.34 0.38 0.35 0.32 0.42 0.32 0.29 0.34 0.27 0.27 0.20 0.24 0.24 0.21 0.20 0.27 0.29 0.30 0.30 0.31 0.32 0.32 0.32 0.32 0.32 0.31 0.28 0.25 0.22 0.20 0.18 0.17 0.15
0.40 0.37 0.41 0.37 0.29 0.25 0.21 0.20 0.24 0.25 0.24 0.30 0.32 0.34 0.36 0.41 0.42 0.31 0.30 0.25 0.25 0.23 0.31 0.22 0.18 0.27 0.32 0.29 0.30 0.31 0.31 0.31 0.32 0.33 0.32 0.32 0.30 0.27 0.23 0.20 0.17 0.16 0.16 0.14
0.40 0.34 0.24 0.26 0.23 0.20 0.19 0.17 0.20 0.23 0.28 0.33 0.36 0.32 0.35 0.39 0.39 0.30 0.26 0.22 0.24 0.31 0.21 0.18 0.26 0.32 0.29 0.29 0.30 0.31 0.33 0.33 0.33 0.33 0.33 0.31 0.28 0.24 0.21 0.18 0.17 0.16 0.14 0.14
0.28 0.24 0.18 0.22 0.19 0.23 0.26 0.28 0.28 0.31 0.29 0.33 0.35 0.32 0.34 0.35 0.30 0.29 0.22 0.28 0.27 0.19 0.17 0.17 0.27 0.28 0.28 0.30 0.30 0.29 0.30 0.32 0.32 0.32 0.31 0.28 0.24 0.21 0.20 0.18 0.16 0.15 0.13 0.13
0.28 0.29 0.22 0.23 0.29 0.31 0.32 0.36 0.33 0.32 0.37 0.36 0.33 0.33 0.34 0.31 0.26 0.29 0.25 0.21 0.18 0.19 0.19 0.29 0.32 0.27 0.27 0.26 0.27 0.29 0.30 0.30 0.31 0.31 0.28 0.26 0.21 0.19 0.18 0.17 0.16 0.14 0.13 0.12
0.28 0.29 0.25 0.28 0.25 0.26 0.29 0.31 0.29 0.34 0.38 0.39 0.37 0.29 0.26 0.25 0.27 0.23 0.21 0.19 0.18 0.22 0.32 0.33 0.28 0.27 0.28 0.28 0.29 0.31 0.31 0.31 0.30 0.30 0.28 0.24 0.19 0.18 0.16 0.16 0.15 0.14 0.13 0.12
0.26 0.26 0.34 0.34 0.29 0.28 0.31 0.34 0.32 0.39 0.36 0.31 0.32 0.25 0.24 0.30 0.23 0.21 0.25 0.22 0.31 0.35 0.31 0.32 0.31 0.29 0.29 0.29 0.30 0.30 0.30 0.29 0.30 0.28 0.26 0.22 0.19 0.17 0.15 0.13 0.14 0.14 0.14 0.13

GFSNW_prec_pwat_141.txt.gz
Precipitable_Water
0.46 0.48 0.46 0.45 0.50 0.66 0.65 0.49 0.28 0.57 0.61 0.32 0.34 0.28 0.22 0.31 0.29 0.38 0.40 0.40 0.42 0.28 0.28 0.27 0.29 0.30 0.34 0.39 0.36 0.31 0.33 0.27 0.23 0.22 0.24 0.25 0.33 0.31 0.28 0.19 0.17 0.20 0.18 0.18
0.49 0.49 0.51 0.54 0.57 0.66 0.57 0.43 0.43 0.63 0.55 0.24 0.26 0.31 0.31 0.34 0.29 0.37 0.37 0.36 0.35 0.40 0.34 0.28 0.30 0.34 0.41 0.37 0.36 0.31 0.33 0.24 0.19 0.23 0.27 0.28 0.24 0.28 0.27 0.25 0.23 0.15 0.13 0.17
0.51 0.52 0.56 0.60 0.65 0.67 0.63 0.49 0.39 0.46 0.50 0.45 0.30 0.28 0.27 0.27 0.38 0.34 0.36 0.33 0.35 0.35 0.34 0.35 0.32 0.34 0.39 0.39 0.38 0.38 0.35 0.26 0.20 0.16 0.22 0.23 0.22 0.26 0.27 0.24 0.17 0.17 0.19 0.22
0.53 0.55 0.57 0.63 0.68 0.77 0.69 0.54 0.45 0.49 0.34 0.37 0.35 0.32 0.30 0.27 0.27 0.35 0.37 0.31 0.31 0.30 0.29 0.34 0.34 0.36 0.35 0.37 0.39 0.36 0.32 0.22 0.24 0.25 0.25 0.28 0.28 0.27 0.26 0.21 0.21 0.17 0.24 0.25
0.53 0.56 0.59 0.63 0.73 0.77 0.63 0.48 0.44 0.47 0.39 0.43 0.38 0.35 0.31 0.29 0.32 0.28 0.27 0.29 0.34 0.35 0.32 0.38 0.32 0.36 0.35 0.34 0.33 0.25 0.30 0.22 0.24 0.22 0.25 0.23 0.19 0.21 0.23 0.23 0.25 0.25 0.27 0.27
0.51 0.57 0.60 0.65 0.73 0.75 0.59 0.61 0.59 0.48 0.39 0.37 0.35 0.31 0.31 0.33 0.36 0.35 0.35 0.35 0.36 0.35 0.35 0.38 0.37 0.40 0.37 0.32 0.22 0.21 0.25 0.26 0.20 0.15 0.22 0.23 0.18 0.23 0.24 0.25 0.29 0.28 0.23 0.31
0.50 0.54 0.59 0.66 0.72 0.74 0.66 0.65 0.60 0.44 0.31 0.34 0.35 0.37 0.39 0.39 0.35 0.31 0.35 0.35 0.34 0.39 0.43 0.41 0.42 0.39 0.35 0.34 0.26 0.28 0.23 0.25 0.25 0.22 0.26 0.15 0.24 0.34 0.32 0.29 0.28 0.29 0.30 0.31
0.53 0.56 0.60 0.67 0.72 0.74 0.69 0.70 0.61 0.51 0.36 0.39 0.42 0.41 0.42 0.42 0.40 0.38 0.37 0.39 0.44 0.46 0.40 0.33 0.31 0.31 0.32 0.31 0.29 0.30 0.33 0.28 0.22 0.25 0.23 0.26 0.27 0.30 0.29 0.24 0.21 0.27 0.26 0.28
0.55 0.59 0.62 0.67 0.71 0.74 0.71 0.70 0.72 0.60 0.47 0.44 0.52 0.46 0.48 0.42 0.39 0.39 0.42 0.47 0.48 0.42 0.35 0.31 0.24 0.23 0.26 0.24 0.29 0.36 0.33 0.33 0.23 0.22 0.18 0.16 0.25 0.33 0.37 0.33 0.18 0.28 0.29 0.29
0.56 0.60 0.62 0.67 0.71 0.74 0.71 0.66 0.74 0.63 0.48 0.55 0.55 0.46 0.44 0.44 0.42 0.39 0.42 0.42 0.40 0.41 0.30 0.25 0.24 0.21 0.24 0.19 0.20 0.23 0.27 0.25 0.18 0.19 0.18 0.22 0.30 0.34 0.36 0.17 0.18 0.31 0.31 0.27
0.53 0.57 0.63 0.66 0.70 0.73 0.70 0.66 0.76 0.65 0.52 0.55 0.56 0.54 0.48 0.44 0.43 0.37 0.42 0.37 0.38 0.35 0.29 0.28 0.26 0.25 0.23 0.24 0.25 0.21 0.20 0.19 0.17 0.19 0.18 0.15 0.33 0.33 0.24 0.30 0.34 0.31 0.28 0.29
0.51 0.59 0.63 0.69 0.71 0.72 0.73 0.62 0.82 0.81 0.59 0.56 0.65 0.62 0.63 0.61 0.51 0.44 0.44 0.37 0.36 0.36 0.32 0.30 0.33 0.31 0.32 0.30 0.23 0.32 0.22 0.25 0.21 0.21 0.20 0.33 0.38 0.36 0.38 0.35 0.29 0.28 0.28 0.29
0.54 0.60 0.64 0.68 0.68 0.69 0.71 0.69 0.73 0.66 0.56 0.55 0.57 0.53 0.60 0.62 0.56 0.52 0.35 0.35 0.37 0.37 0.44 0.38 0.38 0.35 0.38 0.29 0.28 0.29 0.33 0.35 0.27 0.27 0.31 0.33 0.36 0.38 0.37 0.33 0.30 0.30 0.29 0.28
0.56 0.61 0.65 0.65 0.65 0.67 0.75 0.70 0.72 0.65 0.53 0.44 0.47 0.60 0.53 0.62 0.56 0.48 0.45 0.40 0.42 0.41 0.44 0.38 0.39 0.34 0.41 0.33 0.32 0.30 0.32 0.34 0.29 0.28 0.30 0.31 0.30 0.30 0.31 0.30 0.29 0.28 0.29 0.28
0.56 0.63 0.63 0.63 0.61 0.68 0.71 0.69 0.68 0.66 0.50 0.41 0.43 0.51 0.53 0.51 0.50 0.46 0.46 0.42 0.35 0.36 0.33 0.34 0.31 0.37 0.35 0.35 0.35 0.30 0.34 0.30 0.23 0.20 0.28 0.26 0.26 0.29 0.30 0.28 0.27 0.28 0.28 0.28
0.59 0.63 0.63 0.57 0.59 0.67 0.61 0.50 0.64 0.62 0.57 0.41 0.35 0.51 0.45 0.45 0.42 0.39 0.36 0.39 0.36 0.35 0.35 0.32 0.35 0.40 0.33 0.26 0.26 0.36 0.37 0.35 0.32 0.26 0.30 0.28 0.29 0.30 0.31 0.28 0.29 0.31 0.30 0.29
0.59 0.60 0.54 0.52 0.59 0.61 0.51 0.50 0.58 0.62 0.53 0.39 0.33 0.35 0.43 0.45 0.39 0.38 0.38 0.41 0.39 0.35 0.32 0.29 0.28 0.29 0.31 0.27 0.24 0.31 0.34 0.35 0.33 0.32 0.29 0.25 0.28 0.26 0.31 0.31 0.31 0.31 0.30 0.29
0.54 0.57 0.55 0.53 0.56 0.56 0.52 0.60 0.63 0.61 0.47 0.38 0.27 0.29 0.32 0.42 0.32 0.30 0.39 0.34 0.35 0.33 0.32 0.30 0.24 0.26 0.28 0.21 0.27 0.30 0.33 0.32 0.29 0.28 0.30 0.28 0.31 0.32 0.32 0.32 0.30 0.28 0.26 0.25
0.53 0.53 0.53 0.48 0.46 0.44 0.49 0.59 0.58 0.58 0.46 0.32 0.29 0.25 0.23 0.42 0.34 0.34 0.33 0.35 0.25 0.36 0.29 0.29 0.29 0.21 0.16 0.24 0.26 0.27 0.27 0.23 0.23 0.26 0.29 0.30 0.29 0.29 0.29 0.28 0.27 0.25 0.22 0.19
0.50 0.49 0.37 0.29 0.39 0.51 0.53 0.42 0.31 0.31 0.40 0.43 0.32 0.36 0.27 0.36 0.33 0.31 0.30 0.31 0.23 0.20 0.28 0.33 0.26 0.25 0.31 0.31 0.31 0.29 0.26 0.26 0.27 0.24 0.23 0.26 0.26 0.27 0.27 0.26 0.25 0.22 0.18 0.16
0.44 0.33 0.31 0.41 0.49 0.41 0.34 0.28 0.25 0.24 0.32 0.42 0.40 0.35 0.30 0.41 0.30 0.28 0.32 0.27 0.27 0.20 0.24 0.23 0.20 0.20 0.29 0.32 0.30 0.30 0.29 0.29 0.29 0.29 0.30 0.30 0.29 0.27 0.26 0.24 0.22 0.19 0.17 0.15
0.41 0.38 0.41 0.40 0.30 0.25 0.21 0.24 0.26 0.26 0.24 0.37 0.35 0.35 0.39 0.39 0.40 0.29 0.29 0.24 0.26 0.22 0.30 0.21 0.18 0.26 0.31 0.29 0.29 0.29 0.29 0.29 0.30 0.31 0.31 0.32 0.31 0.29 0.26 0.21 0.19 0.17 0.17 0.15
0.41 0.33 0.27 0.25 0.24 0.18 0.17 0.16 0.23 0.24 0.29 0.35 0.34 0.30 0.36 0.37 0.36 0.31 0.25 0.21 0.21 0.31 0.22 0.18 0.24 0.34 0.32 0.30 0.30 0.30 0.31 0.31 0.31 0.32 0.33 0.32 0.30 0.28 0.23 0.19 0.19 0.17 0.15 0.15
0.28 0.25 0.20 0.23 0.20 0.24 0.26 0.26 0.25 0.30 0.33 0.35 0.34 0.32 0.32 0.34 0.29 0.28 0.21 0.28 0.29 0.20 0.17 0.18 0.28 0.34 0.32 0.30 0.31 0.30 0.29 0.30 0.31 0.31 0.31 0.30 0.28 0.25 0.22 0.20 0.18 0.16 0.14 0.13
0.28 0.27 0.20 0.22 0.29 0.31 0.33 0.35 0.31 0.33 0.39 0.36 0.32 0.33 0.33 0.29 0.26 0.29 0.25 0.21 0.18 0.19 0.20 0.30 0.33 0.33 0.32 0.30 0.30 0.29 0.28 0.29 0.30 0.31 0.30 0.29 0.28 0.24 0.20 0.19 0.18 0.16 0.14 0.12
0.31 0.30 0.25 0.29 0.25 0.27 0.31 0.31 0.31 0.39 0.41 0.38 0.33 0.28 0.26 0.24 0.26 0.23 0.20 0.19 0.18 0.25 0.32 0.37 0.36 0.30 0.29 0.28 0.29 0.29 0.31 0.31 0.31 0.31 0.30 0.28 0.27 0.23 0.19 0.19 0.17 0.15 0.14 0.12
0.29 0.29 0.36 0.34 0.30 0.29 0.31 0.31 0.33 0.42 0.37 0.30 0.30 0.24 0.24 0.30 0.24 0.22 0.27 0.25 0.31 0.36 0.35 0.33 0.32 0.31 0.30 0.30 0.31 0.32 0.32 0.32 0.31 0.30 0.30 0.29 0.27 0.24 0.19 0.16 0.15 0.14 0.14 0.13

GFSNW_prec_pwat_147.txt.gz
Precipitable_Water
0.45 0.43 0.44 0.43 0.42 0.48 0.49 0.35 0.18 0.44 0.49 0.25 0.26 0.16 0.18 0.20 0.17 0.20 0.17 0.17 0.15 0.18 0.23 0.24 0.24 0.20 0.23 0.30 0.33 0.28 0.30 0.26 0.24 0.30 0.34 0.34 0.33 0.31 0.34 0.27 0.24 0.26 0.22 0.18
0.45 0.45 0.44 0.45 0.44 0.51 0.47 0.30 0.28 0.52 0.46 0.16 0.18 0.20 0.19 0.22 0.17 0.18 0.17 0.14 0.17 0.16 0.15 0.17 0.25 0.28 0.31 0.34 0.31 0.29 0.35 0.31 0.24 0.25 0.32 0.34 0.32 0.32 0.33 0.35 0.30 0.21 0.18 0.19
0.49 0.47 0.46 0.46 0.48 0.59 0.52 0.35 0.23 0.38 0.41 0.34 0.22 0.18 0.16 0.18 0.25 0.24 0.25 0.21 0.23 0.20 0.19 0.22 0.23 0.26 0.31 0.36 0.36 0.36 0.36 0.31 0.28 0.24 0.28 0.33 0.30 0.31 0.32 0.31 0.24 0.23 0.22 0.22
0.51 0.50 0.48 0.50 0.50 0.57 0.52 0.41 0.30 0.33 0.22 0.27 0.27 0.26 0.22 0.21 0.24 0.29 0.28 0.22 0.20 0.17 0.17 0.25 0.27 0.32 0.34 0.38 0.43 0.38 0.35 0.27 0.33 0.35 0.35 0.36 0.33 0.31 0.33 0.30 0.28 0.23 0.21 0.20
0.54 0.52 0.51 0.51 0.53 0.59 0.48 0.34 0.32 0.38 0.31 0.37 0.33 0.31 0.28 0.34 0.36 0.34 0.25 0.23 0.24 0.28 0.22 0.22 0.23 0.31 0.33 0.32 0.39 0.37 0.40 0.32 0.33 0.30 0.35 0.37 0.32 0.33 0.33 0.31 0.29 0.26 0.25 0.21
0.54 0.54 0.54 0.51 0.55 0.55 0.43 0.48 0.50 0.42 0.36 0.36 0.33 0.33 0.38 0.35 0.42 0.42 0.35 0.29 0.26 0.23 0.21 0.36 0.39 0.42 0.40 0.36 0.35 0.35 0.36 0.34 0.32 0.26 0.33 0.32 0.26 0.32 0.32 0.29 0.29 0.27 0.18 0.23
0.56 0.53 0.55 0.54 0.53 0.54 0.48 0.48 0.49 0.37 0.27 0.33 0.34 0.39 0.41 0.39 0.39 0.36 0.36 0.35 0.28 0.28 0.43 0.48 0.45 0.42 0.41 0.40 0.40 0.42 0.38 0.38 0.35 0.28 0.30 0.20 0.31 0.38 0.36 0.28 0.29 0.29 0.27 0.29
0.55 0.53 0.54 0.53 0.53 0.56 0.51 0.54 0.49 0.41 0.30 0.38 0.40 0.40 0.40 0.42 0.43 0.40 0.38 0.37 0.40 0.44 0.41 0.35 0.32 0.32 0.35 0.37 0.44 0.45 0.45 0.37 0.30 0.25 0.25 0.28 0.29 0.30 0.27 0.24 0.24 0.32 0.31 0.31
0.55 0.53 0.51 0.50 0.52 0.57 0.56 0.54 0.61 0.51 0.41 0.36 0.44 0.42 0.44 0.36 0.36 0.38 0.41 0.43 0.45 0.44 0.38 0.37 0.27 0.24 0.30 0.29 0.33 0.43 0.40 0.36 0.29 0.26 0.22 0.19 0.24 0.33 0.37 0.35 0.21 0.34 0.33 0.31
0.54 0.54 0.53 0.53 0.56 0.58 0.56 0.54 0.64 0.56 0.43 0.46 0.49 0.40 0.40 0.44 0.41 0.37 0.41 0.39 0.39 0.44 0.37 0.31 0.28 0.27 0.34 0.27 0.27 0.28 0.30 0.30 0.25 0.26 0.23 0.27 0.34 0.38 0.40 0.22 0.19 0.30 0.31 0.29
0.55 0.55 0.54 0.57 0.59 0.60 0.58 0.54 0.66 0.60 0.47 0.48 0.56 0.54 0.47 0.47 0.44 0.36 0.43 0.41 0.42 0.41 0.35 0.33 0.31 0.28 0.32 0.30 0.32 0.28 0.27 0.27 0.24 0.30 0.24 0.16 0.37 0.39 0.27 0.27 0.30 0.31 0.32 0.30
0.55 0.56 0.57 0.59 0.61 0.62 0.64 0.52 0.69 0.73 0.55 0.50 0.63 0.66 0.68 0.61 0.56 0.50 0.47 0.43 0.42 0.45 0.38 0.36 0.35 0.31 0.32 0.29 0.24 0.35 0.26 0.30 0.26 0.28 0.24 0.33 0.38 0.32 0.34 0.34 0.31 0.31 0.30 0.29
0.53 0.54 0.58 0.59 0.61 0.63 0.65 0.61 0.68 0.65 0.53 0.50 0.52 0.54 0.66 0.70 0.67 0.66 0.47 0.50 0.51 0.47 0.49 0.41 0.38 0.34 0.36 0.26 0.28 0.30 0.34 0.37 0.28 0.27 0.31 0.33 0.34 0.35 0.35 0.35 0.34 0.33 0.31 0.28
0.50 0.54 0.59 0.60 0.62 0.65 0.68 0.63 0.68 0.65 0.54 0.41 0.46 0.66 0.60 0.70 0.70 0.67 0.63 0.59 0.60 0.58 0.53 0.44 0.39 0.34 0.43 0.35 0.34 0.30 0.33 0.34 0.31 0.29 0.33 0.32 0.33 0.35 0.37 0.38 0.36 0.30 0.28 0.26
0.50 0.57 0.59 0.63 0.66 0.69 0.72 0.73 0.73 0.73 0.55 0.40 0.45 0.60 0.64 0.66 0.63 0.57 0.56 0.54 0.50 0.46 0.42 0.38 0.36 0.43 0.41 0.43 0.39 0.33 0.37 0.33 0.27 0.24 0.32 0.31 0.32 0.37 0.38 0.34 0.29 0.27 0.24 0.24
0.53 0.58 0.63 0.66 0.68 0.71 0.66 0.53 0.68 0.72 0.65 0.48 0.38 0.57 0.57 0.59 0.57 0.53 0.49 0.48 0.47 0.46 0.42 0.39 0.43 0.48 0.44 0.37 0.33 0.40 0.45 0.43 0.41 0.33 0.36 0.33 0.32 0.34 0.34 0.29 0.26 0.26 0.25 0.26
0.54 0.59 0.64 0.64 0.69 0.69 0.57 0.52 0.61 0.69 0.64 0.45 0.37 0.41 0.53 0.55 0.52 0.48 0.46 0.48 0.45 0.43 0.40 0.39 0.38 0.42 0.44 0.36 0.33 0.41 0.42 0.40 0.39 0.37 0.30 0.24 0.27 0.25 0.27 0.27 0.26 0.26 0.27 0.26
0.53 0.60 0.64 0.67 0.70 0.69 0.58 0.62 0.65 0.67 0.54 0.46 0.34 0.36 0.41 0.50 0.41 0.38 0.45 0.38 0.39 0.39 0.36 0.35 0.33 0.39 0.39 0.30 0.35 0.39 0.38 0.37 0.36 0.33 0.30 0.25 0.27 0.26 0.26 0.27 0.26 0.25 0.24 0.25
0.60 0.62 0.63 0.64 0.61 0.54 0.56 0.63 0.64 0.63 0.45 0.35 0.36 0.30 0.29 0.45 0.39 0.38 0.38 0.39 0.29 0.37 0.31 0.30 0.31 0.30 0.26 0.28 0.29 0.30 0.32 0.31 0.29 0.31 0.29 0.26 0.24 0.24 0.24 0.24 0.25 0.24 0.24 0.22
0.57 0.52 0.44 0.44 0.55 0.67 0.61 0.44 0.35 0.42 0.44 0.41 0.33 0.39 0.32 0.39 0.36 0.33 0.32 0.33 0.26 0.23 0.28 0.31 0.25 0.21 0.28 0.28 0.29 0.31 0.32 0.32 0.30 0.24 0.23 0.23 0.22 0.23 0.23 0.24 0.25 0.25 0.22 0.20
0.46 0.37 0.40 0.57 0.63 0.45 0.35 0.26 0.26 0.34 0.31 0.35 0.35 0.34 0.28 0.39 0.24 0.24 0.28 0.23 0.25 0.18 0.24 0.24 0.21 0.19 0.25 0.29 0.30 0.32 0.31 0.30 0.29 0.30 0.29 0.27 0.26 0.24 0.24 0.25 0.25 0.23 0.20 0.18
0.44 0.48 0.55 0.52 0.39 0.31 0.25 0.24 0.27 0.29 0.27 0.33 0.29 0.31 0.32 0.33 0.33 0.24 0.25 0.20 0.21 0.16 0.27 0.22 0.16 0.19 0.25 0.28 0.30 0.31 0.30 0.29 0.29 0.30 0.28 0.29 0.28 0.28 0.28 0.26 0.24 0.21 0.20 0.18
0.47 0.39 0.30 0.29 0.28 0.21 0.20 0.18 0.21 0.24 0.33 0.35 0.34 0.31 0.33 0.33 0.33 0.27 0.24 0.20 0.20 0.30 0.21 0.16 0.17 0.25 0.28 0.31 0.33 0.32 0.32 0.31 0.31 0.29 0.29 0.30 0.30 0.30 0.29 0.26 0.23 0.21 0.19 0.18
0.32 0.25 0.21 0.22 0.21 0.23 0.24 0.26 0.27 0.36 0.38 0.35 0.34 0.32 0.31 0.32 0.26 0.26 0.21 0.27 0.27 0.20 0.17 0.17 0.24 0.31 0.31 0.34 0.35 0.33 0.30 0.31 0.30 0.30 0.30 0.29 0.29 0.29 0.28 0.27 0.23 0.20 0.18 0.18
0.26 0.26 0.20 0.22 0.29 0.31 0.32 0.36 0.34 0.41 0.42 0.37 0.32 0.31 0.30 0.26 0.25 0.27 0.25 0.23 0.18 0.20 0.19 0.26 0.33 0.36 0.35 0.34 0.35 0.34 0.32 0.32 0.31 0.31 0.30 0.30 0.31 0.30 0.28 0.27 0.24 0.21 0.19 0.18
0.30 0.29 0.25 0.30 0.28 0.28 0.32 0.34 0.35 0.41 0.39 0.37 0.32 0.27 0.22 0.22 0.23 0.21 0.19 0.19 0.17 0.21 0.29 0.36 0.38 0.38 0.37 0.36 0.36 0.36 0.36 0.34 0.34 0.33 0.33 0.33 0.32 0.31 0.30 0.29 0.26 0.22 0.20 0.18
0.29 0.28 0.33 0.32 0.31 0.30 0.32 0.36 0.39 0.44 0.36 0.28 0.28 0.21 0.21 0.28 0.22 0.21 0.26 0.24 0.28 0.32 0.35 0.39 0.40 0.37 0.38 0.38 0.36 0.36 0.35 0.34 0.33 0.33 0.33 0.32 0.32 0.31 0.29 0.27 0.27 0.25 0.22 0.20